Temp
-7 -7 -7 -6 -6 -6 -6 -6 -5 -5 -5 -6 -6 -6 -6 -6 -7 -7 -8 -8 -8 -7 -7 -8 -8 -8 -11 -11 -11 -11 -11 -11 -11 -11 -10 -9 -10 -9 -8 -8 -7 -7 -7 -7 -8 -8 -6 -6 -6 -7 -7 -7 -7 -7
-8 -7 -7 -7 -7 -6 -6 -6 -6 -6 -6 -6 -6 -6 -6 -7 -7 -7 -7 -8 -8 -8 -7 -8 -8 -8 -8 -10 -11 -12 -11 -11 -11 -11 -10 -10 -10 -10 -9 -9 -8 -8 -8 -8 -8 -8 -8 -8 -7 -7 -7 -8 -8 -8
-8 -8 -8 -7 -7 -7 -6 -6 -6 -6 -6 -6 -6 -6 -7 -7 -7 -7 -8 -8 -8 -8 -7 -7 -8 -8 -8 -9 -9 -10 -11 -12 -12 -12 -12 -12 -11 -10 -9 -8 -8 -8 -8 -9 -8 -8 -8 -8 -8 -8 -8 -8 -8 -8
-9 -8 -8 -8 -7 -7 -7 -7 -7 -7 -7 -7 -7 -7 -7 -7 -7 -8 -8 -8 -9 -9 -8 -8 -8 -7 -8 -8 -8 -8 -9 -11 -12 -12 -12 -12 -12 -11 -10 -10 -10 -10 -10 -10 -9 -9 -9 -9 -8 -8 -8 -8 -9 -9
-10 -9 -8 -8 -8 -7 -7 -7 -7 -7 -7 -7 -7 -7 -7 -7 -8 -8 -8 -8 -8 -9 -8 -7 -7 -8 -8 -8 -9 -9 -9 -10 -11 -12 -12 -12 -12 -11 -12 -11 -10 -10 -9 -9 -9 -9 -9 -9 -9 -8 -8 -9 -9 -8
-10 -10 -9 -8 -8 -8 -8 -8 -8 -7 -7 -8 -8 -8 -8 -8 -8 -8 -8 -8 -9 -9 -10 -8 -8 -9 -8 -9 -9 -9 -10 -11 -12 -12 -12 -11 -12 -11 -11 -10 -9 -9 -9 -9 -8 -8 -8 -8 -8 -8 -9 -9 -8 -7
-10 -10 -9 -9 -9 -9 -8 -8 -8 -8 -8 -8 -8 -8 -8 -8 -9 -9 -9 -9 -10 -11 -11 -9 -9 -9 -10 -10 -10 -10 -9 -10 -10 -12 -11 -10 -12 -11 -11 -11 -7 -9 -9 -9 -8 -8 -9 -9 -9 -9 -8 -8 -8 -7
-11 -10 -10 -9 -9 -9 -9 -9 -9 -9 -9 -9 -9 -9 -9 -9 -9 -9 -9 -10 -11 -12 -12 -12 -10 -9 -9 -9 -10 -10 -10 -10 -10 -11 -11 -11 -12 -12 -11 -8 -9 -9 -8 -8 -8 -9 -9 -8 -9 -9 -8 -8 -7 -7
-11 -11 -10 -10 -10 -9 -9 -9 -9 -9 -9 -9 -9 -9 -9 -9 -9 -9 -10 -11 -12 -13 -13 -13 -12 -11 -10 -11 -10 -11 -11 -12 -11 -11 -11 -11 -11 -10 -9 -9 -8 -8 -8 -9 -8 -8 -8 -8 -8 -8 -8 -8 -8 -7
-12 -11 -11 -11 -10 -10 -10 -10 -10 -10 -10 -10 -10 -10 -10 -9 -10 -10 -11 -12 -14 -14 -14 -11 -12 -12 -12 -12 -11 -11 -11 -11 -10 -10 -10 -10 -10 -9 -9 -8 -8 -9 -9 -9 -8 -8 -8 -8 -8 -8 -8 -8 -8 -8
-12 -11 -11 -11 -11 -11 -11 -11 -10 -10 -10 -10 -10 -10 -10 -11 -11 -12 -13 -13 -13 -14 -12 -10 -11 -13 -12 -12 -12 -12 -11 -11 -10 -9 -10 -9 -8 -8 -8 -8 -9 -9 -9 -9 -9 -9 -9 -9 -9 -8 -8 -8 -8 -8
-12 -12 -12 -11 -11 -11 -11 -11 -11 -11 -11 -10 -10 -11 -12 -12 -13 -12 -14 -13 -13 -13 -12 -10 -11 -11 -12 -12 -13 -12 -11 -10 -10 -9 -10 -8 -8 -8 -9 -9 -9 -9 -9 -9 -9 -9 -9 -9 -9 -9 -9 -8 -8 -8
-12 -12 -12 -12 -12 -12 -12 -12 -12 -11 -11 -12 -12 -13 -13 -13 -14 -14 -13 -12 -11 -11 -11 -11 -11 -12 -12 -11 -12 -12 -11 -10 -9 -10 -9 -8 -8 -9 -9 -9 -9 -9 -9 -9 -9 -9 -9 -9 -10 -9 -9 -9 -8 -9
-13 -13 -13 -13 -12 -12 -12 -13 -13 -13 -13 -13 -14 -14 -13 -13 -13 -12 -11 -10 -10 -10 -11 -11 -11 -11 -11 -11 -11 -11 -10 -10 -10 -9 -8 -9 -9 -9 -9 -9 -9 -9 -9 -9 -9 -9 -9 -9 -10 -9 -9 -9 -9 -9
-15 -14 -14 -13 -13 -13 -12 -13 -13 -13 -14 -14 -14 -14 -14 -13 -13 -13 -12 -12 -11 -11 -11 -11 -11 -11 -11 -11 -10 -10 -10 -10 -9 -8 -8 -9 -9 -9 -9 -9 -9 -9 -9 -9 -9 -9 -9 -10 -10 -10 -10 -9 -9 -10
-14 -14 -14 -13 -13 -13 -13 -14 -15 -16 -15 -15 -15 -14 -13 -13 -12 -11 -11 -13 -12 -12 -11 -12 -11 -11 -11 -11 -10 -10 -9 -8 -8 -9 -10 -10 -10 -10 -10 -9 -9 -10 -10 -10 -10 -10 -9 -9 -10 -10 -10 -10 -10 -9
-14 -13 -13 -14 -14 -14 -14 -16 -16 -16 -16 -16 -16 -14 -13 -13 -14 -13 -12 -13 -13 -13 -12 -12 -12 -11 -11 -10 -10 -9 -9 -10 -10 -10 -10 -10 -10 -10 -10 -10 -10 -10 -10 -10 -10 -10 -10 -9 -10 -10 -10 -10 -10 -10
-14 -14 -14 -14 -15 -15 -16 -16 -16 -16 -16 -16 -16 -14 -13 -13 -13 -13 -14 -14 -14 -14 -13 -13 -12 -12 -11 -10 -9 -11 -11 -11 -11 -11 -11 -11 -11 -11 -11 -11 -11 -11 -11 -11 -11 -10 -10 -9 -10 -10 -10 -10 -10 -10
-15 -15 -15 -15 -15 -16 -16 -16 -16 -16 -16 -16 -16 -15 -15 -14 -14 -14 -14 -15 -15 -15 -14 -14 -14 -13 -12 -12 -12 -12 -12 -13 -13 -13 -13 -13 -12 -12 -12 -12 -11 -11 -11 -11 -11 -10 -10 -10 -10 -10 -10 -10 -10 -11
-15 -15 -16 -16 -16 -16 -16 -16 -16 -16 -16 -16 -16 -15 -15 -15 -15 -15 -15 -15 -15 -15 -15 -15 -14 -14 -13 -13 -13 -13 -13 -13 -13 -13 -13 -13 -13 -13 -13 -13 -12 -12 -12 -11 -11 -10 -10 -10 -10 -10 -10 -10 -10 -10
-16 -16 -16 -16 -16 -16 -16 -16 -16 -16 -16 -16 -16 -17 -16 -16 -16 -16 -16 -16 -16 -16 -15 -15 -15 -14 -14 -15 -15 -14 -14 -14 -14 -14 -14 -14 -14 -13 -13 -13 -12 -12 -12 -11 -11 -11 -10 -10 -10 -10 -10 -10 -10 -10
-16 -17 -17 -17 -17 -16 -16 -17 -17 -17 -16 -17 -17 -17 -16 -16 -16 -16 -16 -16 -16 -16 -16 -16 -16 -16 -16 -16 -16 -15 -15 -15 -15 -15 -15 -15 -16 -15 -14 -14 -14 -13 -13 -12 -11 -11 -11 -10 -10 -10 -10 -10 -10 -10
-17 -17 -17 -17 -16 -17 -17 -17 -17 -17 -17 -17 -17 -17 -17 -17 -17 -17 -17 -16 -16 -16 -16 -16 -16 -16 -16 -16 -16 -15 -16 -16 -16 -15 -15 -15 -14 -14 -14 -14 -14 -14 -14 -13 -12 -11 -11 -11 -10 -10 -10 -10 -10 -10
-18 -18 -18 -18 -18 -18 -17 -17 -18 -17 -17 -17 -17 -17 -17 -17 -17 -17 -16 -16 -16 -16 -16 -16 -16 -16 -16 -16 -16 -16 -15 -15 -15 -14 -14 -14 -14 -14 -14 -14 -14 -14 -14 -14 -12 -12 -11 -11 -11 -10 -10 -10 -11 -11
-18 -18 -18 -18 -19 -18 -18 -18 -18 -18 -18 -18 -17 -17 -17 -17 -17 -17 -16 -16 -16 -16 -16 -16 -16 -16 -16 -16 -16 -15 -15 -15 -15 -15 -14 -14 -14 -14 -14 -14 -14 -14 -14 -14 -13 -12 -11 -11 -11 -11 -11 -11 -11 -11
-18 -18 -18 -19 -19 -19 -19 -19 -19 -18 -18 -18 -18 -17 -17 -17 -17 -17 -16 -16 -16 -16 -16 -17 -17 -16 -16 -16 -16 -15 -15 -15 -15 -15 -14 -15 -14 -14 -14 -13 -13 -14 -14 -14 -13 -12 -12 -11 -11 -11 -11 -11 -11 -11
-19 -18 -18 -18 -19 -19 -18 -18 -18 -18 -18 -18 -18 -17 -17 -17 -17 -16 -16 -16 -17 -17 -17 -17 -17 -16 -16 -16 -16 -15 -15 -15 -15 -15 -14 -15 -15 -14 -14 -13 -13 -13 -14 -13 -13 -12 -12 -12 -11 -11 -11 -11 -11 -11
-19 -19 -19 -18 -19 -19 -18 -18 -18 -18 -18 -18 -18 -17 -17 -17 -17 -17 -17 -17 -17 -17 -17 -17 -17 -17 -16 -16 -16 -16 -15 -15 -15 -15 -15 -15 -14 -14 -14 -13 -13 -13 -13 -13 -12 -12 -12 -12 -11 -11 -11 -11 -11 -11
-19 -19 -19 -19 -19 -19 -19 -19 -18 -18 -18 -18 -18 -18 -18 -18 -18 -18 -18 -18 -18 -18 -17 -17 -17 -17 -16 -16 -16 -16 -16 -16 -16 -16 -15 -15 -15 -15 -14 -13 -13 -13 -13 -12 -13 -12 -12 -12 -11 -11 -11 -11 -11 -11
-20 -20 -20 -20 -20 -19 -19 -19 -19 -19 -19 -19 -19 -19 -19 -19 -19 -19 -18 -18 -18 -18 -18 -18 -17 -17 -17 -16 -16 -16 -17 -17 -18 -17 -16 -15 -14 -14 -14 -14 -14 -14 -13 -13 -12 -11 -11 -11 -11 -11 -11 -11 -11 -11
-20 -20 -20 -20 -20 -20 -20 -19 -20 -20 -20 -20 -19 -19 -20 -19 -19 -19 -19 -19 -18 -18 -18 -18 -18 -17 -17 -17 -17 -16 -16 -17 -17 -17 -16 -15 -14 -14 -14 -14 -13 -13 -13 -12 -12 -11 -11 -11 -11 -11 -11 -11 -11 -11
-21 -21 -21 -21 -21 -20 -20 -20 -20 -20 -20 -20 -20 -20 -20 -20 -20 -19 -19 -19 -19 -19 -18 -18 -18 -18 -18 -18 -18 -18 -17 -17 -17 -17 -16 -15 -14 -14 -13 -13 -13 -12 -12 -12 -12 -11 -11 -11 -11 -11 -11 -11 -11 -12
-21 -21 -21 -21 -21 -21 -21 -21 -21 -21 -20 -21 -20 -20 -20 -20 -20 -19 -19 -19 -19 -19 -19 -19 -18 -18 -18 -18 -18 -18 -18 -18 -17 -17 -16 -16 -16 -14 -14 -13 -13 -13 -13 -12 -12 -12 -12 -12 -12 -12 -12 -12 -12 -12
Height
2934 2941 2947 2953 2959 2963 2968 2973 2978 2983 2988 2991 2994 2996 2998 3000 3001 3003 3004 3004 3004 3001 3000 3001 3002 3002 3004 3005 3005 3006 3004 3002 3002 3002 3001 3000 2995 2994 2991 2990 2988 2986 2985 2982 2978 2975 2972 2969 2970 2970 2967 2962 2961 2958
2924 2931 2938 2944 2950 2955 2960 2964 2969 2975 2980 2984 2987 2989 2992 2994 2995 2997 2998 2998 2998 2997 2996 2993 2994 2995 2995 2997 2997 2997 2999 3001 3000 2999 2998 2995 2994 2991 2989 2985 2984 2981 2981 2978 2977 2970 2963 2964 2964 2964 2961 2957 2954 2951
2914 2921 2929 2935 2941 2946 2952 2957 2962 2967 2972 2977 2981 2984 2986 2988 2990 2992 2992 2992 2992 2992 2991 2986 2987 2987 2987 2989 2990 2989 2990 2994 2994 2995 2993 2991 2989 2988 2984 2979 2976 2975 2974 2970 2968 2965 2962 2961 2958 2957 2954 2950 2947 2944
2903 2912 2919 2926 2932 2938 2944 2950 2955 2960 2965 2970 2974 2977 2980 2983 2984 2985 2986 2987 2987 2987 2984 2983 2980 2979 2980 2980 2981 2981 2983 2986 2988 2987 2986 2983 2983 2981 2978 2975 2971 2970 2967 2962 2959 2957 2956 2953 2952 2949 2946 2942 2938 2934
2893 2902 2910 2917 2923 2930 2936 2942 2948 2953 2958 2963 2967 2971 2974 2977 2978 2979 2980 2980 2981 2985 2981 2977 2976 2975 2975 2974 2975 2974 2974 2977 2979 2980 2978 2976 2978 2976 2970 2968 2960 2962 2959 2957 2951 2952 2950 2946 2945 2943 2939 2934 2929 2923
2885 2893 2901 2909 2915 2922 2928 2935 2941 2947 2952 2957 2961 2964 2968 2971 2972 2973 2974 2975 2975 2974 2975 2974 2969 2970 2968 2967 2968 2967 2968 2970 2971 2972 2970 2968 2971 2972 2964 2957 2955 2956 2954 2952 2947 2946 2943 2941 2938 2935 2929 2925 2920 2914
2877 2885 2893 2901 2908 2914 2921 2928 2935 2941 2946 2951 2955 2959 2962 2965 2966 2968 2969 2970 2970 2970 2970 2969 2965 2964 2964 2964 2965 2965 2964 2965 2967 2966 2963 2963 2965 2965 2959 2952 2947 2950 2948 2945 2942 2938 2933 2932 2927 2925 2920 2915 2910 2905
2870 2878 2886 2894 2901 2908 2915 2922 2928 2934 2940 2944 2949 2953 2956 2959 2960 2962 2962 2964 2966 2967 2967 2965 2963 2964 2962 2962 2962 2963 2962 2962 2960 2958 2956 2956 2957 2956 2949 2944 2944 2944 2943 2940 2937 2934 2929 2924 2919 2916 2911 2906 2900 2895
2863 2872 2879 2887 2895 2902 2909 2916 2923 2929 2934 2939 2943 2947 2950 2952 2955 2956 2957 2958 2959 2964 2961 2958 2960 2963 2959 2959 2959 2959 2957 2957 2956 2951 2951 2952 2949 2946 2942 2943 2943 2940 2940 2936 2931 2926 2922 2917 2912 2907 2903 2898 2892 2886
2857 2866 2874 2882 2889 2897 2904 2911 2917 2923 2929 2934 2938 2942 2944 2947 2949 2952 2952 2953 2953 2952 2949 2947 2954 2956 2957 2957 2957 2958 2954 2953 2951 2948 2947 2944 2940 2940 2939 2939 2938 2937 2934 2930 2925 2921 2916 2911 2906 2900 2896 2890 2884 2879
2852 2860 2869 2877 2884 2892 2899 2906 2912 2918 2923 2927 2931 2935 2939 2942 2944 2946 2948 2948 2947 2944 2939 2938 2941 2948 2952 2951 2953 2954 2951 2950 2947 2946 2943 2939 2936 2935 2936 2936 2935 2932 2929 2925 2920 2915 2910 2905 2899 2895 2890 2885 2880 2875
2847 2856 2864 2872 2880 2888 2894 2901 2907 2913 2919 2923 2928 2931 2934 2937 2940 2943 2942 2943 2939 2939 2938 2936 2938 2940 2946 2946 2948 2949 2947 2946 2942 2939 2939 2934 2933 2933 2932 2932 2930 2928 2925 2921 2916 2911 2906 2901 2896 2891 2886 2880 2875 2871
2844 2852 2860 2868 2876 2883 2890 2896 2903 2908 2914 2918 2923 2926 2928 2931 2932 2931 2932 2932 2932 2932 2934 2934 2936 2938 2940 2942 2942 2943 2941 2939 2936 2934 2931 2929 2927 2927 2927 2926 2925 2923 2921 2917 2912 2907 2903 2898 2894 2888 2883 2877 2871 2869
2841 2850 2857 2865 2872 2879 2885 2891 2897 2902 2907 2911 2915 2918 2920 2919 2918 2919 2924 2928 2928 2928 2930 2932 2934 2936 2936 2937 2937 2936 2934 2932 2929 2927 2925 2923 2922 2922 2922 2922 2921 2920 2917 2914 2909 2904 2899 2895 2891 2886 2881 2874 2870 2868
2839 2848 2855 2862 2869 2875 2881 2887 2892 2897 2901 2906 2909 2909 2908 2911 2912 2913 2917 2919 2921 2924 2928 2930 2931 2932 2932 2932 2931 2929 2927 2923 2921 2921 2920 2919 2918 2919 2918 2918 2917 2915 2913 2910 2906 2901 2897 2892 2889 2884 2880 2874 2870 2868
2838 2846 2851 2859 2866 2872 2878 2884 2889 2893 2896 2900 2901 2901 2902 2904 2906 2908 2911 2914 2918 2920 2923 2926 2927 2926 2926 2926 2925 2922 2920 2917 2917 2914 2914 2914 2914 2914 2914 2914 2912 2910 2908 2906 2902 2898 2894 2890 2886 2883 2878 2874 2869 2867
2836 2841 2848 2855 2861 2868 2874 2880 2885 2889 2893 2893 2893 2896 2898 2900 2902 2905 2908 2913 2913 2917 2920 2922 2921 2921 2920 2917 2916 2915 2913 2912 2909 2909 2909 2909 2909 2909 2909 2908 2906 2905 2903 2901 2898 2895 2891 2888 2884 2882 2878 2875 2871 2868
2835 2841 2846 2853 2859 2865 2871 2877 2883 2885 2885 2887 2890 2892 2896 2899 2900 2902 2904 2907 2909 2912 2914 2915 2916 2914 2913 2912 2912 2909 2907 2906 2904 2903 2904 2904 2904 2903 2902 2901 2900 2898 2896 2894 2892 2890 2887 2884 2881 2879 2877 2874 2871 2869
2834 2839 2845 2851 2857 2863 2869 2874 2878 2879 2881 2883 2886 2889 2892 2893 2895 2896 2898 2900 2902 2904 2907 2908 2908 2905 2908 2909 2908 2906 2903 2900 2898 2897 2897 2897 2897 2895 2894 2894 2893 2891 2888 2887 2886 2885 2883 2880 2878 2876 2874 2872 2870 2868
2835 2840 2847 2852 2858 2863 2866 2869 2873 2875 2877 2880 2881 2884 2886 2888 2889 2890 2891 2892 2895 2897 2898 2897 2897 2900 2902 2902 2897 2895 2895 2893 2891 2890 2890 2890 2888 2886 2885 2885 2884 2883 2882 2882 2881 2880 2878 2876 2874 2873 2871 2869 2868 2867
2836 2841 2847 2852 2856 2861 2864 2866 2870 2872 2874 2876 2878 2880 2882 2882 2883 2884 2886 2888 2889 2889 2890 2891 2892 2893 2894 2892 2888 2887 2887 2887 2885 2883 2880 2877 2877 2875 2874 2874 2873 2872 2872 2873 2874 2874 2873 2872 2870 2869 2867 2866 2865 2864
2837 2842 2847 2852 2856 2859 2861 2864 2868 2869 2872 2873 2875 2876 2878 2878 2879 2880 2881 2881 2881 2882 2884 2884 2884 2884 2883 2882 2880 2879 2877 2875 2873 2872 2871 2869 2866 2865 2864 2863 2863 2862 2863 2864 2865 2867 2867 2867 2866 2864 2863 2862 2861 2860
2838 2843 2847 2850 2854 2857 2861 2862 2865 2868 2869 2870 2872 2873 2873 2873 2873 2874 2873 2873 2874 2873 2874 2873 2874 2874 2873 2873 2872 2871 2869 2866 2864 2864 2863 2861 2858 2856 2855 2854 2854 2853 2854 2855 2857 2859 2861 2861 2860 2859 2858 2857 2856 2856
2840 2843 2847 2850 2853 2854 2856 2858 2860 2863 2865 2866 2868 2868 2869 2869 2870 2869 2869 2871 2869 2868 2868 2868 2868 2867 2867 2866 2865 2863 2862 2859 2856 2855 2856 2851 2846 2845 2844 2842 2843 2844 2845 2847 2848 2851 2853 2855 2854 2854 2853 2852 2851 2852
2841 2844 2846 2846 2849 2851 2852 2854 2856 2859 2860 2861 2863 2864 2864 2865 2865 2865 2865 2865 2863 2862 2863 2862 2862 2861 2861 2859 2858 2856 2854 2851 2848 2847 2848 2840 2835 2833 2834 2833 2833 2834 2836 2837 2840 2843 2846 2848 2849 2849 2848 2848 2848 2848
2838 2839 2842 2843 2845 2848 2849 2850 2851 2853 2856 2857 2858 2859 2860 2860 2861 2859 2859 2858 2858 2858 2858 2857 2857 2856 2855 2853 2851 2849 2846 2842 2838 2837 2837 2829 2825 2822 2822 2822 2823 2826 2829 2830 2833 2836 2839 2842 2843 2844 2844 2844 2845 2845
2834 2835 2837 2839 2842 2844 2846 2848 2850 2851 2852 2853 2854 2855 2856 2856 2854 2853 2854 2854 2853 2853 2853 2852 2851 2849 2847 2845 2842 2840 2837 2833 2828 2825 2823 2818 2813 2810 2808 2810 2814 2819 2819 2822 2826 2830 2833 2836 2838 2839 2840 2840 2841 2842
2831 2832 2835 2837 2839 2842 2843 2845 2846 2847 2848 2850 2850 2850 2851 2850 2849 2849 2849 2849 2849 2848 2847 2846 2844 2842 2840 2837 2833 2830 2826 2822 2818 2813 2808 2803 2798 2797 2797 2799 2804 2808 2811 2815 2819 2823 2827 2830 2832 2834 2836 2838 2839 2840
2828 2830 2832 2834 2836 2838 2839 2841 2842 2844 2844 2844 2845 2846 2844 2843 2844 2843 2843 2843 2842 2842 2841 2839 2838 2836 2833 2830 2826 2822 2816 2811 2805 2798 2794 2790 2787 2788 2787 2789 2793 2799 2803 2808 2814 2818 2822 2825 2828 2831 2833 2835 2837 2838
2825 2827 2830 2830 2831 2833 2835 2836 2836 2836 2836 2838 2838 2838 2838 2838 2838 2838 2837 2836 2836 2836 2835 2833 2831 2829 2825 2822 2819 2816 2810 2804 2798 2792 2785 2782 2781 2781 2782 2784 2787 2790 2797 2803 2808 2812 2817 2820 2824 2827 2830 2833 2835 2837
2821 2822 2824 2826 2826 2828 2829 2828 2829 2830 2831 2832 2832 2833 2833 2832 2832 2832 2832 2831 2831 2830 2829 2828 2825 2822 2819 2815 2811 2808 2805 2800 2793 2787 2782 2777 2777 2777 2779 2781 2785 2788 2795 2800 2805 2810 2814 2818 2822 2825 2829 2831 2834 2836
2817 2819 2821 2821 2823 2824 2823 2824 2825 2825 2825 2825 2826 2827 2827 2827 2827 2826 2827 2826 2825 2825 2824 2822 2820 2817 2814 2810 2806 2801 2796 2791 2787 2781 2776 2774 2773 2773 2776 2780 2784 2788 2792 2797 2803 2808 2812 2817 2821 2824 2827 2830 2832 2835
2814 2815 2816 2816 2818 2818 2820 2820 2820 2821 2821 2821 2821 2821 2822 2822 2822 2822 2822 2821 2821 2820 2819 2817 2815 2813 2810 2806 2802 2798 2794 2789 2785 2781 2777 2774 2774 2774 2776 2780 2784 2788 2792 2797 2802 2807 2811 2816 2819 2823 2826 2828 2831 2833
Wind_Speed
42 40 38 36 35 33 32 31 30 30 29 26 24 21 19 18 17 17 16 16 18 22 24 23 15 12 13 15 15 9 14 7 9 8 9 10 10 10 13 13 13 16 17 19 12 15 17 13 8 9 16 26 29 32
42 40 38 36 35 34 32 32 31 30 29 27 25 22 20 19 17 17 16 17 19 21 24 26 22 22 21 19 18 18 15 5 5 6 7 8 11 15 15 24 19 23 22 26 27 27 25 28 29 27 29 28 31 32
42 40 38 36 35 34 33 32 31 30 29 27 25 22 20 19 18 17 18 18 18 20 20 22 6 21 19 13 16 24 24 19 18 16 21 19 18 14 19 21 23 21 20 25 25 28 29 27 28 29 29 27 30 31
42 40 38 36 34 33 32 32 31 30 29 26 24 22 20 18 17 17 17 18 17 18 23 18 8 5 12 18 24 22 23 22 20 22 22 25 21 16 20 25 28 26 24 25 28 31 29 26 24 26 29 31 32 33
41 39 37 35 34 33 32 32 31 30 28 26 24 22 20 18 17 17 18 18 16 14 18 24 24 23 14 14 15 20 20 23 22 20 25 25 20 23 27 27 31 19 21 23 29 24 26 29 28 28 31 33 36 36
39 37 36 35 33 32 32 32 31 30 28 25 23 21 19 17 16 17 17 17 16 15 14 19 19 17 20 15 8 7 17 22 24 21 21 23 22 22 22 26 21 18 19 22 26 25 26 28 29 29 31 33 35 38
38 36 35 34 33 33 32 32 31 29 27 25 23 20 18 17 16 17 17 13 13 10 13 11 12 9 6 7 6 6 8 10 12 19 25 24 18 22 29 34 18 20 22 19 20 21 26 24 27 28 31 31 33 36
37 36 34 34 33 33 33 32 31 30 27 25 23 20 18 17 18 18 17 16 16 14 14 8 10 7 8 10 11 10 14 17 22 22 24 25 20 19 22 17 16 15 17 18 18 20 25 27 29 28 30 32 35 36
37 35 34 34 34 34 34 33 31 29 27 25 22 20 19 18 17 17 15 15 15 15 9 13 8 6 10 11 8 8 10 12 17 24 21 10 14 16 13 11 15 16 16 20 23 27 26 26 27 27 27 29 32 33
37 36 35 35 35 34 34 32 31 29 27 25 23 20 19 17 15 13 13 13 16 20 26 31 18 15 9 7 8 6 8 8 11 15 7 21 21 20 19 16 14 11 16 20 23 24 26 25 24 26 28 28 29 27
37 36 35 35 35 34 33 32 31 29 28 26 24 21 16 12 11 9 7 9 10 11 17 21 20 17 16 14 12 8 6 5 6 8 10 8 10 7 7 6 9 14 19 23 24 26 25 26 26 27 28 26 25 22
37 36 35 35 35 34 34 32 31 30 27 25 20 18 16 10 9 9 10 8 11 8 10 4 5 9 17 16 10 7 7 6 8 10 7 7 9 6 6 7 11 15 19 24 26 25 24 24 25 27 30 28 24 18
37 36 36 35 35 34 32 31 30 28 24 22 21 18 9 11 11 10 15 12 10 10 12 10 9 9 11 11 8 7 8 9 8 7 8 12 11 7 7 12 13 19 21 25 28 26 24 24 24 26 28 27 20 9
35 35 35 35 34 33 32 31 31 30 28 26 18 14 14 10 12 17 14 9 17 12 10 9 9 7 9 9 8 7 9 9 7 8 13 10 10 10 13 13 15 17 21 24 28 26 24 24 21 23 26 26 6 1
36 34 34 36 37 37 34 32 30 28 26 15 13 11 18 14 13 14 21 22 18 20 15 11 11 12 12 10 7 7 6 7 8 12 12 10 14 16 15 14 17 19 22 29 31 27 25 22 19 20 22 23 4 0
32 34 37 37 37 36 32 28 24 22 22 13 13 11 13 18 22 18 15 15 14 16 16 13 10 8 10 8 8 10 11 15 15 13 15 15 17 17 14 18 22 22 22 30 32 29 25 21 18 18 18 20 11 5
35 33 32 32 31 29 31 33 28 25 16 11 13 19 14 13 13 15 16 10 15 11 12 11 9 11 7 11 16 14 20 20 18 21 21 19 18 19 21 23 24 24 29 31 35 34 26 19 17 16 15 14 14 5
26 24 26 28 30 29 28 30 26 17 16 16 14 17 19 18 17 15 12 10 11 11 14 17 15 17 17 17 18 15 17 15 14 17 17 20 21 21 24 24 28 34 37 41 38 26 22 18 16 15 15 14 12 9
20 25 25 33 31 34 29 31 31 10 16 18 17 16 16 16 18 19 20 19 18 15 15 16 14 17 19 21 23 26 25 26 27 31 33 31 34 36 39 37 38 38 38 25 20 18 17 17 15 15 15 14 12 11
23 23 34 33 32 34 27 14 34 19 9 13 15 14 15 17 18 18 19 20 17 16 20 23 23 22 21 19 24 26 28 32 37 38 38 36 37 41 41 38 32 30 28 28 20 17 15 15 16 15 15 14 12 12
24 28 32 30 37 31 21 9 18 12 19 17 15 13 12 12 13 13 14 14 17 20 20 21 20 20 21 23 29 35 38 40 41 43 45 44 39 38 36 32 29 31 33 34 26 18 16 15 17 17 16 15 14 13
31 26 26 26 31 32 22 11 9 8 10 6 6 9 8 10 12 14 15 19 22 22 22 23 24 25 26 29 32 30 28 28 30 31 31 32 30 31 31 28 25 26 25 26 26 21 20 18 18 18 17 17 17 15
30 30 29 29 22 24 16 22 16 12 8 7 8 9 10 10 10 8 9 10 12 18 17 15 17 18 21 22 22 23 24 26 28 27 27 31 34 35 32 30 26 27 22 23 24 22 20 18 18 18 18 18 17 17
20 23 20 16 16 12 14 12 14 15 10 10 8 10 9 8 9 11 12 11 16 20 16 17 17 18 20 22 21 20 22 26 29 28 28 34 35 31 28 30 27 27 25 23 24 24 23 19 18 19 19 18 16 15
15 14 8 12 10 12 11 11 11 9 11 10 11 10 6 7 10 12 11 9 19 20 16 14 14 13 15 17 19 21 24 27 29 27 25 34 37 34 30 28 29 26 25 25 24 23 21 19 18 18 17 13 13 13
10 10 8 9 10 9 9 7 9 11 10 10 9 8 8 11 14 10 9 16 15 13 14 13 13 17 19 21 23 24 27 30 33 32 29 35 36 36 32 29 28 25 23 23 23 22 19 17 17 17 14 13 12 12
7 6 13 13 11 8 7 7 6 7 9 9 7 8 8 8 9 13 12 11 12 11 11 16 20 22 23 24 26 28 30 32 35 35 35 35 37 36 32 29 26 18 23 23 24 22 17 16 17 15 14 13 12 11
8 9 12 9 9 8 8 7 10 10 9 9 9 9 6 7 8 10 13 15 19 20 21 21 22 23 23 25 27 30 32 33 33 36 37 34 31 26 23 23 26 24 23 26 26 24 18 17 16 15 14 12 11 10
9 10 10 11 10 10 12 12 12 12 12 13 13 12 16 18 18 19 19 18 18 20 20 20 21 22 23 25 26 29 31 32 36 40 36 27 18 15 16 19 23 25 26 29 29 24 20 18 16 16 15 13 11 10
15 14 10 12 14 15 13 14 13 18 18 16 17 19 21 21 21 18 17 17 19 19 19 19 21 23 25 25 26 24 27 29 30 34 33 22 13 13 17 20 22 24 28 30 26 25 22 20 19 18 17 15 13 11
16 12 12 12 11 10 15 17 15 17 19 20 20 20 21 21 17 17 16 15 16 16 17 18 20 22 23 24 25 25 22 23 25 23 24 17 11 14 16 18 22 21 29 27 25 22 21 20 20 19 18 16 14 12
12 13 13 15 12 15 18 18 19 17 16 17 17 17 16 16 17 17 15 15 14 14 16 18 19 21 22 23 23 24 24 24 22 20 14 8 6 10 19 20 25 22 25 25 23 24 23 21 20 19 17 15 14 12
9 10 12 14 15 15 13 14 13 13 16 15 16 17 16 15 16 17 15 14 15 15 16 18 20 20 21 21 21 21 19 17 15 15 10 5 8 8 13 17 20 22 23 25 26 25 23 21 20 18 17 15 13 12
Wind_Direction
224 224 224 224 224 224 224 225 226 227 227 229 233 236 237 238 241 249 257 259 266 276 283 285 282 268 263 257 254 259 282 270 255 249 262 277 270 273 276 275 282 278 274 272 273 258 265 272 277 308 291 301 298 294
221 222 222 222 222 224 223 223 223 224 224 226 230 233 234 237 241 247 254 257 263 271 282 288 288 280 269 261 257 253 235 219 245 256 259 264 271 281 281 285 283 276 272 272 267 264 273 289 290 291 292 294 296 293
217 218 219 220 221 222 222 222 221 220 221 224 228 231 234 237 242 248 254 263 267 277 290 284 282 291 261 278 261 248 246 249 249 262 266 265 262 273 276 283 288 283 283 277 273 270 277 283 285 287 292 292 294 293
212 214 216 217 219 221 220 220 219 217 217 220 224 228 231 235 241 248 257 264 270 281 286 296 265 353 203 284 292 270 253 243 241 261 260 258 256 265 268 279 279 284 290 286 279 275 282 281 285 289 292 293 294 295
208 211 213 215 216 217 217 216 215 214 214 216 220 225 228 232 238 245 253 264 269 264 273 286 284 284 269 265 270 275 266 243 256 258 252 254 265 273 276 282 280 285 279 280 282 289 285 289 292 296 295 296 293 294
206 207 211 213 213 212 212 211 210 211 212 213 217 221 224 227 234 244 256 265 275 272 276 284 280 284 283 270 248 249 249 250 248 251 255 264 266 257 273 278 289 286 286 285 289 291 286 287 292 289 287 287 291 295
204 205 208 210 209 207 206 205 206 206 207 211 215 219 221 225 233 241 246 269 274 270 269 290 299 294 243 219 245 271 250 232 245 253 259 269 260 261 266 274 310 290 290 293 295 289 286 294 294 295 297 299 300 302
202 204 205 206 204 203 202 201 201 201 203 206 210 214 218 223 233 244 257 259 260 260 263 259 251 264 245 260 259 257 258 268 269 266 267 273 277 259 258 315 297 301 298 306 306 303 301 306 307 302 303 304 304 307
200 202 202 202 201 200 198 198 198 199 199 202 205 209 216 224 233 240 249 252 249 239 232 245 220 273 256 253 262 257 265 271 273 269 271 257 246 232 283 294 295 312 309 304 312 312 314 311 309 309 310 310 310 311
198 199 199 199 199 198 197 196 195 196 197 199 202 209 220 225 235 245 246 234 227 238 241 249 242 233 254 254 263 258 267 248 262 273 272 242 261 264 270 272 286 299 319 323 322 321 321 322 318 320 323 321 319 317
195 196 197 197 196 196 195 194 194 194 195 197 202 207 214 209 224 222 221 210 220 235 251 264 247 229 231 228 225 227 246 243 253 261 223 261 275 256 245 259 278 313 323 333 332 331 329 331 330 330 331 326 321 315
193 194 195 195 194 193 193 193 194 195 196 199 206 205 198 204 200 203 202 216 225 229 235 225 180 204 207 238 208 216 231 235 241 244 232 258 263 229 232 258 298 319 323 335 334 333 332 332 329 334 335 328 324 310
192 192 192 192 191 191 191 192 190 194 194 193 188 194 201 203 201 203 199 204 215 214 207 205 187 188 219 217 203 209 228 234 248 235 245 268 266 199 234 271 306 324 327 335 338 335 333 330 327 330 333 331 323 300
190 190 190 189 188 186 186 189 195 195 194 196 193 191 194 207 210 212 205 219 215 213 198 213 210 217 219 214 213 233 233 237 240 240 252 245 222 232 258 277 315 319 327 336 337 334 333 331 328 330 337 339 292 323
185 185 185 188 191 195 199 201 200 197 193 191 189 202 216 207 214 204 199 213 220 213 216 213 232 236 232 227 225 231 240 229 231 253 255 238 241 243 266 299 307 306 316 323 337 332 331 331 328 335 339 346 274 52
190 190 196 199 204 216 201 184 188 188 198 192 202 210 208 215 222 224 222 211 219 225 221 223 237 251 240 241 232 235 244 253 270 248 247 251 247 256 269 293 287 296 310 320 332 330 326 328 326 332 341 351 342 224
190 199 205 208 204 190 190 178 185 186 196 213 221 207 196 208 206 221 222 206 212 206 208 212 220 223 235 229 233 246 252 253 253 252 253 245 243 258 277 279 286 291 301 311 317 322 315 319 322 322 333 332 358 345
199 202 205 186 177 176 174 178 181 196 215 217 222 216 220 230 241 239 232 222 227 220 224 229 244 244 244 254 259 297 309 294 254 271 266 259 262 272 281 291 296 297 301 306 309 305 302 311 314 312 316 326 324 345
200 184 178 171 174 165 174 189 188 211 215 230 229 226 232 228 232 238 241 236 237 234 229 234 240 246 253 260 266 263 267 274 278 281 278 282 281 286 289 291 290 291 297 300 294 289 295 307 304 304 304 308 314 325
183 177 168 172 166 176 181 193 199 210 223 229 245 246 240 244 247 248 248 248 244 242 237 236 243 248 255 260 265 263 262 264 269 276 282 282 283 284 285 284 282 280 281 291 272 277 295 300 306 296 296 294 294 303
145 154 162 170 178 189 195 192 193 211 229 243 255 248 244 249 245 242 243 241 241 236 242 248 256 260 263 265 263 262 265 269 273 275 280 284 287 288 287 286 281 277 272 269 271 263 280 296 300 305 289 283 285 290
155 163 169 179 188 201 214 191 186 210 227 219 220 217 226 239 249 250 250 245 244 247 251 253 254 255 257 263 269 275 279 281 281 283 287 291 294 295 292 286 279 273 269 264 260 260 265 282 293 298 296 283 272 282
171 176 183 191 198 201 214 224 230 236 233 230 230 231 242 244 247 242 240 248 248 239 247 257 257 265 272 277 282 284 283 282 285 285 291 298 295 292 288 286 275 271 271 260 251 253 261 276 287 291 292 287 276 269
169 176 182 191 202 202 214 205 203 209 224 224 231 233 233 238 247 245 250 248 247 265 265 264 270 275 279 283 285 284 289 292 294 286 301 304 298 295 286 274 268 263 264 262 245 241 252 269 280 285 288 284 270 264
167 180 191 190 193 209 206 205 204 211 223 226 223 232 239 229 239 248 253 249 255 265 273 271 273 281 291 292 293 296 299 300 301 295 309 299 293 290 285 275 265 262 258 253 243 236 243 257 267 276 280 269 257 257
181 194 184 190 189 195 202 199 212 216 215 220 227 233 237 242 241 246 244 243 266 276 277 275 284 297 300 299 299 300 301 300 302 302 308 297 291 288 281 270 262 261 249 248 236 229 232 243 257 263 258 256 252 248
192 198 201 196 191 193 198 211 209 205 208 217 222 226 227 232 245 238 245 266 285 281 277 294 301 304 305 305 305 306 303 300 299 300 304 297 291 284 274 261 250 240 239 235 223 220 224 244 250 245 244 240 239 241
213 211 219 215 199 204 228 214 215 216 221 224 223 230 235 237 239 248 273 275 286 288 290 294 300 305 305 304 307 310 306 303 302 304 308 304 293 277 267 250 237 231 234 219 214 214 218 231 235 228 224 223 225 220
222 236 227 218 215 219 229 231 229 229 234 235 241 243 256 258 266 279 281 281 278 286 288 291 298 301 301 302 307 310 311 312 311 313 316 310 290 256 234 228 223 226 217 205 210 211 206 220 216 212 209 205 204 201
230 238 228 237 243 240 238 240 240 240 244 246 253 263 269 274 273 280 285 276 271 277 283 292 300 303 303 305 308 314 313 309 310 311 313 306 265 233 226 225 210 197 202 198 208 198 202 202 200 197 195 190 188 187
239 248 236 234 246 241 231 243 245 258 265 264 262 264 269 273 272 266 274 276 277 279 285 293 300 306 310 314 314 312 310 308 312 310 303 293 234 213 211 204 192 188 191 204 191 189 191 191 189 187 185 184 186 189
234 223 227 236 251 253 257 259 261 262 265 267 267 258 263 263 266 268 273 275 274 279 288 296 306 313 316 319 321 320 321 321 323 325 321 278 216 199 198 197 186 189 200 184 183 182 182 183 185 186 187 187 190 194
229 240 245 251 254 258 258 259 254 258 253 256 258 260 260 261 261 266 270 274 278 283 292 299 306 311 315 321 324 325 322 322 329 335 351 58 50 96 134 164 184 181 182 182 178 176 177 181 183 185 188 191 193 196